Regional Weather Roundup
Issued by NWS

Home | Current Version | Previous Version | Text Only | Print | Product List | Glossary Off
Versions: 1 2 3 4 5 6 7 8 9 10 11 12 13 14 15 16 17 18 19 20 21 22 23 24 25 26 27 28 29 30 31 32 33 34 35 36 37 38 39 40 41 42 43 44 45 46 47 48 49 50

064
ASUS43 KDMX 212201
RWRIA

WEATHER ROUNDUP FOR IOWA
NATIONAL WEATHER SERVICE DES MOINES IA
500 PM CDT SAT APR 21 2018

NOTE: "FAIR" INDICATES FEW OR NO CLOUDS BELOW 12,000 FEET WITH NO
SIGNIFICANT WEATHER AND/OR OBSTRUCTIONS TO VISIBILITY.

* - THESE STATIONS ARE NOT NWS STATIONS...THUS NOT UNDER NWS
QUALITY CONTROL.  THEY ALSO DO NOT REPORT WEATHER SUCH
AS PRECIPITATION OR FOG.

IAZ001>003-012>014-020>022-031>034-043>046-212300-
   NORTHWEST IOWA

CITY           SKY/WX    TMP DP  RH WIND       PRES   REMARKS
CARROLL *      CLOUDY    55  28  35 E9        30.26S
CHEROKEE *     PTSUNNY   52  38  58 E12       30.28F
DENISON *      CLOUDY    55  25  30 SE9       30.27S
LE MARS *      CLOUDY    55  34  44 E8        30.27F
ORANGE CITY *  MOSUNNY   55  36  47 E8        30.29R
SHELDON *      CLOUDY    52  36  54 E12G18    30.28S
SIOUX CITY     CLOUDY    56  28  34 E8        30.25F
SPENCER        CLOUDY    48  36  63 E13       30.30F
STORM LAKE *   CLOUDY    50  41  71 NE14      30.27F
$$

IAZ055>058-069>071-079>083-090>094-212300-
   SOUTHWEST IOWA

CITY           SKY/WX    TMP DP  RH WIND       PRES   REMARKS
ATLANTIC *     CLOUDY    55  28  35 E5        30.24F
AUDUBON *      CLOUDY    54  27  35 E6        30.26F
CLARINDA *     MOSUNNY   59  25  27 E13       30.22F
COUNCIL BLFS * PTSUNNY   54  32  43 SE13      30.24S
CRESTON *      CLOUDY    57  25  28 E14       30.23F
HARLAN  *      CLOUDY    54  30  40 E5        30.28S
LAMONI         CLOUDY    56  30  37 E9        30.22S
RED OAK *      CLOUDY    57  32  38 NE10      30.22F
SHENANDOAH *   CLOUDY    59  32  36 NE15      30.20F
$$

IAZ047>049-059>061-072>074-084-212300-
   CENTRAL IOWA

CITY           SKY/WX    TMP DP  RH WIND       PRES   REMARKS
AMES           CLOUDY    57  24  28 SE10      30.28R
ANKENY *       CLOUDY    57  28  33 E7        30.27F
BOONE *        CLOUDY    55  25  30 SE13      30.26S
CHARITON *     CLOUDY    57  27  30 E10       30.23F
DES MOINES     CLOUDY    58  23  26 E6        30.25F
GRINNELL*      CLOUDY    57  22  26 E10       30.28S
KNOXVILLE *    CLOUDY    57  23  26 E8        30.23F
MARSHALLTOWN   CLOUDY    58  27  30 E14       30.27F
NEWTON *       CLOUDY    57  23  26 SE9       30.27S
PELLA *        CLOUDY    58  23  25 E5        30.26F
$$

IAZ004>006-015-016-023>025-035-036-212300-
   NORTH CENTRAL IOWA

CITY           SKY/WX    TMP DP  RH WIND       PRES   REMARKS
ALGONA *       CLOUDY    48  36  61 NE12      30.31S
CLARION *      CLOUDY    59  36  41 E16G23    30.28S
ESTHERVILLE    CLOUDY    41  34  76 NE9       30.31F
FORT DODGE *   MOSUNNY   59  28  30 SE13      30.27F
MASON CITY     CLOUDY    48  39  71 NE12      30.33S
FOREST CITY *  CLOUDY    48  34  57 NE5       30.32F
IOWA FALLS *   FAIR      61  29  29 E13       30.29F
$$

IAZ007>011-017>019-026>030-037>042-050>054-066-212300-
   NORTHEAST IOWA

CITY           SKY/WX    TMP DP  RH WIND       PRES   REMARKS
CEDAR RAPIDS   CLOUDY    57  29  34 E15       30.29S
CHARLES CITY * FAIR      55  39  54 E16       30.32S
CLINTON *        N/A     56  32  40 E15       30.32S
DECORAH *      FAIR      55  34  44 E7        30.33F
DUBUQUE        FAIR      54  28  36 E13       30.33S
MONTICELLO *   FAIR      57  30  35 E14       30.32R
OELWEIN *      PTSUNNY   55  36  47 E13       30.33S
WATERLOO       FAIR      57  33  40 E16       30.30S
$$

IAZ064-065-067-068-078-212300-
   EAST CENTRAL IOWA

CITY           SKY/WX    TMP DP  RH WIND       PRES   REMARKS
DAVENPORT      FAIR      57  23  26 E14       30.33R
IOWA CITY      FAIR      58  28  32 E14       30.30S
MUSCATINE *    FAIR      61  27  27 E14       30.29S
QUAD CITIES    FAIR      59  28  30 E14       30.30R
$$

IAZ062-063-075>077-085>089-095>099-212300-
   SOUTHEAST IOWA

CITY           SKY/WX    TMP DP  RH WIND       PRES   REMARKS
BURLINGTON     PTSUNNY   62  25  24 E10G21    30.25F
FAIRFIELD *    CLOUDY    59  21  23 E14G20    30.25F
FORT MADISON * CLOUDY    61  28  29 E10G18    30.25F
KEOKUK *       PTSUNNY   61  27  27 E13       30.23F
OSKALOOSA *    CLOUDY    58  22  25 E10       30.25F
CENTERVILLE *    N/A     57  27  30 E14       30.24S
OTTUMWA        CLOUDY    59  23  25 E13       30.24F
WASHINGTON *   CLOUDY    61  23  23 E16       30.28F
$$

ABBREVIATIONS USED IN REMARKS
   TC - TEMPERATURES IN CELSIUS
  WCI - WIND CHILL INDEX
   HX - HEAT INDEX
  VSB - VISIBILITY
$$





USA.gov is the U.S. government's official web portal to all federal, state and local government web resources and services.